GFSWCAN_850_temp_156.txt.gz
Temp
-3 -4 -4 -3 -3 -3 -3 -4 -4 -3 -3 -3 -3 -3 -3 -3 -3 -3 -3 -3 -4 -3 -3 -2 -1 -1 -0 -1 -1 0 0 -0 -1 0 1 1 0 2 2 3 2 3 2 3 4 4 4 5 7 6 4 2 2 1
-4 -4 -3 -3 -3 -3 -4 -4 -3 -3 -4 -4 -4 -4 -4 -4 -4 -4 -4 -4 -4 -3 -3 -2 -1 -1 -1 0 0 1 1 1 0 -0 -1 -1 0 -1 1 2 2 2 2 2 3 3 3 4 4 4 4 1 -0 1
-4 -4 -4 -3 -3 -3 -3 -4 -4 -4 -4 -4 -4 -3 -3 -3 -3 -3 -4 -4 -4 -3 -3 -2 -2 -2 -1 -0 0 1 1 1 2 0 -1 -0 -1 -0 2 1 2 2 3 2 3 3 1 1 1 2 2 2 0 1
-4 -4 -4 -4 -4 -4 -4 -4 -4 -4 -3 -2 -2 -2 -2 -2 -2 -2 -3 -4 -3 -3 -3 -1 -1 -1 -0 -0 -0 0 0 1 -0 0 -0 -0 -0 1 1 2 1 1 2 2 1 1 1 0 -0 0 0 0 0 0
-4 -4 -4 -4 -4 -4 -4 -3 -2 -2 -2 -2 -2 -2 -2 -2 -1 -2 -3 -3 -3 -2 -2 -1 -0 0 1 0 0 -0 0 -0 1 -1 0 1 0 1 0 0 1 3 2 2 1 2 2 -0 -1 -0 1 -0 -1 -0
-4 -4 -4 -4 -4 -3 -2 -2 -2 -2 -2 -2 -2 -2 -1 -2 -2 -2 -3 -3 -3 -3 -2 -1 -0 0 1 0 -0 1 0 -0 0 1 0 0 1 1 1 -0 2 4 4 4 1 3 2 0 -0 0 0 -2 -1 -1
-4 -4 -5 -4 -3 -3 -2 -2 -2 -2 -2 -1 -1 -1 -1 -1 -2 -2 -1 -0 -3 -3 -3 -1 -1 -0 -0 -1 -1 -0 0 -0 0 0 0 1 0 1 0 2 3 3 4 3 4 2 -1 -1 -2 -1 -1 -2 -2 -3
-4 -5 -3 -3 -3 -2 -2 -2 -2 -2 -1 -1 -1 -0 -0 -1 -2 -2 0 2 -2 -2 -2 -1 -1 -0 -0 -0 -1 -0 -0 -0 -0 1 -0 -0 0 0 -0 1 2 1 1 1 1 3 1 -0 -1 -2 -2 -2 -3 -5
-4 -3 -2 -2 -3 -2 -2 -2 -2 -1 -1 -1 -1 -1 -1 -1 -2 -1 -0 -2 -3 -2 -1 -2 -1 -2 -0 -1 -1 -1 -0 -0 -1 -1 0 -0 -1 1 1 1 1 0 0 -1 -0 1 -1 -1 -2 -3 -3 -3 -3 -5
-3 -2 -2 -3 -2 -2 -2 -2 -2 -1 -1 -1 -1 -1 -1 -1 -1 -1 -1 -1 -1 -1 -1 -4 -1 -1 -0 -1 -1 -1 -1 -2 -2 -1 -1 -0 -0 1 2 2 1 0 1 1 -2 -4 -4 -3 -3 -3 -2 -3 -3 -4
-2 -2 -3 -2 -2 -2 -2 -2 -2 -1 -1 -0 -0 -1 -1 -1 -1 -1 -1 -1 -1 -1 -1 -1 -1 -0 -0 -1 -1 -0 -1 -2 -1 -0 -0 0 0 -0 0 0 -0 0 1 -0 2 0 -0 1 -1 -2 -3 -4 -4 -5
-3 -3 -2 -3 -2 -2 -1 -2 -1 -1 -1 -1 -1 -1 -1 -1 -1 -2 -1 -1 -1 -0 -2 -1 -1 -1 -1 -0 -0 -1 0 -1 1 -1 -1 0 -2 -1 -1 -1 -1 -2 -1 -0 1 0 -0 -0 -1 -2 -3 -4 -5 -5
-3 -3 -2 -2 -1 -2 -1 -1 -1 -1 -1 0 1 1 0 -1 -4 -2 -1 -1 -0 -1 -1 -1 -1 -1 -1 -0 -2 -1 -1 -0 -0 -2 0 -1 -2 -2 -2 -1 -2 -1 -0 0 -0 -1 -0 -1 -2 -2 -3 -4 -5 -5
-3 -2 -2 -2 -1 -0 -1 -0 1 1 1 2 -0 -2 -3 -3 -1 -1 -0 -0 -1 -1 -1 -0 -2 -0 0 -1 -2 -0 -2 -2 -3 -2 -1 -3 -3 -2 -2 -2 -1 -1 -0 -0 -1 -1 -1 -1 -3 -3 -4 -4 -5 -5
-2 -2 -2 -1 0 1 0 1 1 2 1 -1 -1 -1 -2 -2 -2 -2 -1 -1 -1 0 1 0 -0 1 -2 -2 -1 -2 -3 -2 -2 -2 -3 -3 -3 -2 -2 -1 -0 -1 -1 -1 -1 -2 -2 -3 -3 -4 -5 -5 -6 -6
-2 -2 -1 1 1 1 1 1 2 1 -1 -1 -2 -1 -1 -1 -1 -1 -0 -0 1 2 2 2 -0 -1 -1 -1 -0 -1 -1 -3 -4 -5 -3 -3 -3 -2 -1 -1 -1 -1 -1 -1 -2 -2 -2 -3 -3 -4 -5 -6 -7 -7
-1 -0 0 0 -0 0 1 1 0 -2 -2 -2 -3 -3 -2 -2 -3 -3 -1 0 2 3 -3 -2 -1 0 -2 -1 -0 -1 -2 -3 -3 -4 -4 -4 -2 -1 -1 -1 -1 -1 -1 -2 -2 -3 -3 -4 -4 -5 -5 -7 -8 -8
-0 0 0 1 1 0 0 -1 -2 -2 -3 -4 -3 -4 -3 -3 -2 -1 -0 1 2 2 1 -0 -0 -0 -2 -1 -4 -3 -5 -6 -5 -5 -5 -4 -2 -2 -1 -1 -1 -1 -2 -2 -3 -3 -4 -4 -4 -5 -7 -8 -9 -10
0 0 1 1 1 1 -1 -1 -2 -4 -4 -4 -3 -3 -2 -2 -2 -1 0 1 2 1 0 -2 -3 -2 -3 -3 -3 -4 -5 -5 -7 -7 -6 -5 -2 -1 -1 -1 -2 -2 -3 -3 -4 -4 -4 -5 -5 -6 -7 -7 -8 -9
0 0 0 1 1 0 -2 -2 -2 -3 -4 -3 -2 -2 -2 -2 -2 -1 -0 0 -0 -2 -4 -4 -4 -5 -5 -4 -4 -4 -4 -5 -5 -7 -7 -5 -3 -2 -2 -2 -2 -3 -4 -4 -5 -5 -5 -6 -7 -7 -7 -7 -8 -8
0 0 1 1 -0 -1 -3 -3 -3 -3 -2 -2 -2 -2 -2 -2 -3 -3 -3 -2 -3 -4 -5 -5 -5 -5 -4 -4 -4 -4 -4 -4 -4 -3 -5 -6 -5 -4 -3 -4 -4 -4 -4 -4 -5 -6 -6 -6 -6 -7 -8 -8 -9 -9
0 1 1 -0 -1 -2 -2 -3 -3 -3 -2 -3 -2 -3 -4 -6 -4 -4 -3 -5 -5 -6 -5 -5 -5 -5 -4 -4 -4 -4 -4 -4 -3 -3 -3 -3 -4 -4 -5 -4 -5 -4 -4 -4 -5 -5 -6 -7 -7 -8 -8 -9 -10 -10
1 1 -0 -1 -1 -2 -3 -2 -2 -3 -6 -6 -3 -5 -7 -6 -3 -3 -6 -5 -6 -6 -6 -6 -6 -5 -5 -5 -5 -5 -5 -4 -4 -4 -4 -4 -4 -5 -5 -5 -5 -5 -5 -5 -6 -6 -6 -7 -8 -8 -9 -10 -11 -11
1 -1 -2 -3 -2 -7 -3 -3 -3 -3 -3 -5 -6 -7 -6 -5 -2 -4 -6 -6 -6 -6 -6 -6 -6 -6 -6 -6 -5 -5 -5 -5 -5 -5 -6 -5 -5 -6 -6 -6 -6 -6 -6 -6 -6 -7 -7 -8 -8 -9 -10 -10 -11 -11
-1 -5 -3 -9 -4 -7 -9 -10 -8 -6 -8 -8 -8 -9 -9 -4 -8 -8 -7 -8 -8 -8 -7 -6 -6 -6 -6 -5 -6 -6 -5 -5 -5 -5 -6 -6 -6 -7 -7 -7 -7 -7 -7 -7 -7 -7 -8 -9 -9 -10 -10 -10 -11 -11
-9 -5 -7 -7 -8 -8 -9 -9 -10 -9 -11 -10 -8 -6 -5 -11 -11 -8 -9 -9 -9 -9 -8 -8 -7 -6 -6 -6 -5 -5 -6 -5 -5 -5 -5 -6 -6 -7 -7 -7 -6 -7 -7 -7 -7 -7 -8 -8 -9 -10 -10 -11 -11 -11
-10 -9 -4 -4 -4 -4 -8 -6 -6 -9 -11 -10 -11 -11 -13 -14 -13 -11 -11 -10 -10 -10 -9 -9 -8 -7 -7 -7 -6 -6 -6 -6 -6 -6 -6 -6 -6 -7 -7 -6 -6 -6 -7 -7 -7 -8 -8 -8 -9 -10 -10 -10 -11 -11
-5 -6 -10 -6 -6 -6 -10 -13 -10 -9 -10 -7 -8 -13 -15 -14 -14 -13 -12 -11 -10 -10 -10 -9 -9 -8 -8 -8 -7 -7 -7 -6 -6 -6 -6 -6 -6 -6 -7 -7 -7 -8 -8 -8 -8 -8 -9 -9 -9 -10 -10 -10 -11 -11
-6 -6 -6 -11 -9 -9 -11 -12 -11 -8 -8 -7 -16 -17 -16 -16 -15 -13 -12 -11 -10 -10 -9 -9 -9 -9 -9 -8 -8 -8 -7 -7 -7 -7 -7 -7 -6 -6 -7 -7 -7 -7 -8 -8 -8 -9 -9 -9 -9 -9 -10 -10 -10 -11
-7 -7 -8 -12 -15 -12 -10 -9 -9 -9 -9 -10 -12 -15 -15 -16 -16 -14 -13 -12 -11 -10 -10 -10 -10 -10 -9 -9 -9 -9 -9 -9 -8 -8 -8 -7 -7 -7 -7 -7 -7 -7 -8 -8 -8 -9 -9 -9 -9 -9 -10 -10 -11 -11
-7 -6 -8 -10 -12 -9 -9 -9 -9 -9 -10 -12 -12 -13 -15 -16 -15 -15 -14 -13 -13 -12 -12 -11 -11 -10 -10 -10 -10 -10 -10 -10 -9 -9 -9 -9 -8 -8 -8 -8 -8 -8 -8 -8 -8 -9 -9 -9 -10 -10 -10 -11 -11 -12
-7 -8 -9 -11 -10 -9 -8 -8 -8 -9 -10 -12 -13 -14 -14 -15 -16 -16 -15 -14 -14 -13 -12 -12 -12 -11 -11 -11 -11 -11 -11 -11 -10 -10 -10 -9 -9 -9 -9 -9 -9 -9 -9 -9 -9 -9 -9 -9 -10 -10 -11 -11 -12 -13
-8 -8 -9 -9 -9 -8 -8 -8 -9 -11 -11 -11 -12 -13 -15 -16 -18 -17 -17 -16 -15 -14 -14 -13 -13 -13 -13 -12 -12 -12 -11 -11 -11 -11 -10 -10 -10 -10 -10 -10 -10 -10 -10 -10 -10 -10 -10 -11 -11 -11 -11 -12 -12 -13

GFSWCAN_850_temp_162.txt.gz
Temp
-3 -3 -3 -3 -3 -3 -3 -3 -3 -3 -3 -3 -3 -3 -3 -3 -3 -3 -3 -3 -3 -2 -0 -1 0 1 1 2 3 3 2 2 2 1 2 3 4 5 6 6 7 7 5 5 5 5 5 10 10 9 9 7 7 6
-3 -3 -3 -3 -3 -3 -3 -3 -3 -3 -3 -3 -3 -3 -3 -3 -3 -3 -4 -3 -3 -3 -3 -2 -1 -0 1 1 2 2 2 3 3 2 3 4 3 4 5 5 8 6 7 7 6 5 9 6 7 6 5 6 4 4
-3 -4 -3 -3 -3 -3 -3 -3 -3 -3 -3 -3 -3 -3 -3 -3 -3 -3 -4 -4 -4 -4 -4 -4 -2 -2 -2 -1 0 1 1 1 2 2 2 3 2 5 4 5 6 7 8 6 7 9 9 7 4 3 3 4 3 2
-4 -4 -3 -3 -3 -3 -3 -3 -3 -3 -3 -3 -3 -3 -3 -3 -3 -3 -4 -4 -4 -3 -2 -1 -2 -2 -1 -2 -1 -0 0 1 0 1 0 1 2 2 3 3 6 7 7 6 7 8 5 4 3 2 1 1 1 1
-4 -4 -3 -3 -3 -3 -3 -3 -3 -3 -3 -4 -4 -4 -4 -4 -4 -4 -4 -3 -3 -3 -0 -1 -2 -1 -1 -1 -1 -1 -1 -0 0 -0 0 1 1 1 3 2 4 6 5 6 6 7 6 7 1 1 1 0 0 -1
-4 -4 -4 -4 -4 -4 -3 -4 -4 -4 -4 -4 -4 -4 -4 -4 -4 -3 -3 -4 -3 -4 -3 -1 -2 -2 -1 -2 -1 -1 -1 -1 -0 -0 0 1 1 -0 0 3 7 7 6 6 7 6 5 3 1 1 -0 -1 -2 -2
-4 -4 -4 -4 -4 -4 -4 -4 -4 -3 -3 -2 -2 -2 -2 -3 -3 -3 -2 -2 -1 -3 -3 -1 0 -1 -1 -1 -1 -1 -1 -2 -1 -1 -0 1 1 -0 2 3 6 5 5 5 3 2 1 0 -1 -1 -2 -3 -4 -4
-4 -4 -4 -4 -4 -4 -3 -3 -3 -3 -2 -2 -2 -2 -2 -2 -2 -2 -2 -0 -3 -4 -3 -1 0 -2 -2 -2 -2 -2 -1 -2 -1 0 1 2 2 1 2 5 5 5 5 3 2 3 2 -1 -2 -4 -4 -5 -5 -5
-4 -4 -4 -4 -3 -3 -2 -2 -2 -2 -2 -2 -2 -2 -2 -2 -2 -2 -2 -3 -4 -3 -1 -0 1 1 -2 -0 -0 -1 -0 -0 1 0 2 1 3 2 5 5 5 5 3 3 2 1 -1 -2 -3 -4 -4 -4 -4 -5
-4 -4 -4 -3 -2 -2 -2 -2 -2 -2 -2 -2 -2 -2 -2 -2 -2 -2 -3 -3 -3 -2 -2 1 2 1 -1 0 1 -1 -0 2 0 2 2 1 4 4 4 4 5 5 3 1 -1 -2 -2 -3 -3 -4 -3 -3 -4 -5
-4 -3 -3 -3 -3 -2 -2 -2 -2 -2 -2 -1 -1 -2 -2 -2 -2 -2 -2 -1 -1 -1 -1 0 0 2 -1 2 1 1 2 1 2 3 2 3 3 5 5 5 5 4 3 1 1 1 -0 0 -2 -3 -3 -4 -5 -6
-3 -3 -2 -2 -2 -2 -2 -2 -2 -2 -1 -1 -2 -2 -2 -1 -1 0 1 0 1 2 1 1 0 0 -1 -0 3 1 2 2 2 1 1 3 5 5 4 4 4 3 1 0 0 -1 -2 -2 -3 -3 -4 -5 -5 -5
-3 -2 -2 -3 -2 -2 -2 -2 -1 -1 -2 -1 -1 -1 -0 -1 0 1 1 1 2 -0 -1 -1 1 -1 -1 -0 1 1 1 2 3 1 3 5 3 1 0 0 -0 -1 -1 -1 -1 -1 -2 -3 -4 -2 -2 -2 -2 -3
-2 -2 -3 -3 -2 -2 -2 -2 -2 -2 -1 -0 -0 -1 1 0 2 3 4 4 2 0 -0 2 -0 2 0 1 1 1 2 1 2 2 3 3 2 -1 -1 -2 -1 -2 -2 -1 -1 -3 -3 -3 -2 -1 -1 -2 -2 -3
-2 -2 -2 -2 -2 -2 -2 -1 -1 -1 -1 -1 0 1 1 1 -0 -1 -1 -0 -1 -1 1 1 2 2 1 1 1 1 0 2 3 4 3 -1 -1 -2 -2 -2 -2 -2 -2 -2 -2 -2 -1 -1 -1 -2 -2 -3 -4 -4
-2 -2 -1 -1 -1 -2 -2 -1 -0 -1 -2 -1 -2 -0 -1 0 -1 -1 -1 -1 -1 0 1 0 1 1 1 1 1 2 2 3 3 -0 -2 -3 -3 -3 -3 -2 -3 -2 -2 -2 -2 -2 -2 -1 -1 -2 -3 -4 -4 -4
-2 -1 -1 -1 -1 -1 -1 0 0 -1 -2 -2 -1 -3 -2 -1 -1 -1 -1 -1 -0 1 1 1 1 1 0 1 2 2 2 -0 -2 -3 -4 -4 -4 -4 -3 -2 -2 -2 -3 -3 -2 -2 -2 -2 -2 -3 -4 -5 -5 -6
-1 -1 -0 -1 -0 -0 -0 -1 -1 -2 -2 -3 -1 -3 -3 -3 -2 -2 -2 -1 -0 1 1 1 1 1 1 1 1 -0 -1 -4 -5 -6 -5 -5 -5 -4 -3 -3 -3 -3 -2 -2 -2 -2 -2 -3 -3 -4 -4 -5 -6 -7
-1 -0 -0 0 0 0 -1 -2 -2 -2 -3 -3 -3 -3 -3 -4 -3 -2 -2 -2 -1 -1 -1 -0 -1 -0 -1 -1 -1 -2 -3 -4 -5 -6 -6 -6 -5 -4 -3 -3 -2 -2 -2 -3 -3 -3 -3 -4 -5 -4 -4 -5 -6 -7
-1 -1 -1 -0 0 -0 -2 -2 -2 -2 -2 -4 -4 -4 -4 -4 -4 -3 -3 -3 -2 -2 -2 -2 -2 -3 -3 -4 -5 -5 -6 -6 -7 -7 -8 -7 -5 -4 -3 -3 -3 -3 -3 -3 -3 -3 -4 -4 -4 -4 -5 -6 -7 -8
-1 -0 -0 -0 0 -1 -2 -3 -3 -3 -3 -3 -4 -3 -4 -4 -4 -4 -4 -4 -3 -3 -3 -4 -5 -5 -5 -5 -5 -5 -6 -7 -7 -7 -7 -8 -6 -4 -4 -3 -3 -3 -3 -3 -3 -4 -4 -4 -4 -5 -6 -6 -7 -8
0 1 0 -0 -1 -1 -2 -3 -3 -3 -2 -3 -3 -3 -2 -2 -3 -4 -4 -4 -4 -5 -6 -6 -6 -5 -5 -5 -5 -5 -5 -6 -6 -6 -5 -4 -5 -4 -3 -3 -3 -3 -3 -3 -4 -4 -5 -5 -5 -6 -6 -7 -8 -8
0 0 0 0 -1 -2 -3 -3 -2 -2 -1 -2 -3 -2 -2 -2 -4 -4 -4 -5 -6 -6 -6 -6 -6 -5 -5 -5 -5 -5 -5 -5 -5 -5 -5 -4 -4 -4 -4 -3 -3 -4 -4 -4 -5 -5 -5 -5 -6 -6 -7 -7 -8 -9
0 -1 -2 -3 -3 -3 -3 -3 -2 -2 -2 -2 -2 -2 -3 -3 -4 -3 -4 -6 -7 -8 -7 -6 -6 -6 -6 -5 -5 -5 -5 -5 -5 -5 -5 -4 -4 -4 -4 -4 -4 -5 -5 -5 -5 -5 -5 -6 -6 -7 -7 -8 -8 -9
-1 -4 -4 -3 -4 -3 -3 -3 -3 -2 -3 -4 -3 -3 -3 -4 -3 -4 -5 -7 -8 -8 -8 -7 -7 -6 -6 -6 -6 -6 -5 -5 -6 -6 -5 -5 -5 -5 -5 -5 -5 -5 -5 -5 -5 -6 -6 -6 -7 -7 -7 -8 -8 -9
-4 -6 -4 -4 -3 -3 -3 -3 -3 -3 -4 -4 -4 -5 -5 -3 -4 -5 -6 -8 -9 -10 -9 -8 -8 -7 -7 -6 -6 -6 -6 -6 -6 -6 -6 -6 -6 -7 -7 -7 -6 -6 -6 -6 -6 -6 -6 -6 -7 -7 -8 -8 -9 -10
-5 -5 -5 -6 -6 -5 -4 -5 -5 -3 -4 -4 -4 -4 -4 -4 -6 -8 -11 -11 -11 -10 -9 -9 -9 -9 -8 -7 -7 -7 -6 -6 -6 -6 -6 -6 -6 -7 -7 -8 -7 -7 -6 -6 -6 -6 -7 -7 -7 -8 -8 -9 -9 -10
-5 -6 -5 -7 -7 -7 -6 -5 -5 -5 -5 -7 -6 -7 -6 -6 -8 -13 -13 -12 -10 -10 -10 -10 -9 -9 -9 -8 -8 -7 -7 -7 -7 -7 -6 -6 -7 -7 -7 -7 -7 -7 -7 -7 -7 -7 -7 -8 -8 -8 -9 -10 -10 -10
-6 -7 -7 -8 -8 -7 -8 -7 -6 -8 -10 -9 -8 -10 -12 -16 -17 -15 -13 -11 -11 -10 -10 -10 -10 -9 -9 -9 -9 -8 -8 -8 -8 -7 -7 -8 -8 -7 -7 -7 -7 -7 -7 -7 -7 -8 -8 -9 -9 -9 -9 -10 -10 -10
-7 -8 -7 -10 -8 -7 -9 -10 -10 -12 -12 -13 -14 -15 -16 -17 -16 -14 -13 -12 -12 -11 -11 -10 -10 -10 -10 -10 -10 -10 -9 -9 -9 -9 -9 -9 -9 -8 -8 -7 -7 -7 -7 -8 -8 -8 -8 -9 -9 -9 -10 -10 -10 -10
-9 -8 -8 -8 -8 -9 -11 -11 -11 -11 -13 -14 -15 -14 -15 -16 -16 -15 -14 -13 -12 -12 -12 -12 -11 -11 -10 -10 -10 -10 -10 -10 -10 -10 -9 -9 -9 -9 -9 -8 -8 -8 -8 -8 -8 -8 -9 -9 -9 -9 -9 -9 -10 -10
-9 -8 -8 -8 -8 -11 -11 -10 -10 -11 -12 -12 -14 -15 -16 -15 -15 -16 -15 -14 -14 -13 -12 -12 -12 -12 -11 -11 -11 -11 -11 -11 -11 -10 -10 -10 -10 -10 -9 -9 -9 -9 -8 -8 -9 -9 -9 -9 -9 -9 -9 -10 -10 -11
-10 -9 -9 -8 -8 -9 -9 -9 -9 -11 -11 -12 -13 -14 -15 -14 -15 -17 -16 -15 -15 -14 -13 -13 -13 -13 -13 -13 -12 -12 -12 -12 -12 -11 -11 -11 -11 -10 -10 -10 -10 -9 -9 -9 -9 -9 -10 -10 -10 -10 -10 -10 -11 -11

GFSWCAN_850_temp_165.txt.gz
Temp
-3 -3 -3 -3 -3 -3 -3 -3 -3 -2 -3 -3 -3 -3 -3 -3 -3 -3 -3 -3 -2 -1 0 1 2 1 1 1 4 5 4 3 2 1 3 3 4 6 6 7 7 5 4 5 6 5 5 11 11 10 12 11 9 9
-3 -3 -3 -3 -3 -3 -3 -3 -3 -3 -3 -3 -3 -3 -3 -3 -3 -2 -2 -2 -3 -2 -1 -1 0 1 1 2 3 4 1 5 4 4 5 5 4 5 6 5 8 6 8 8 7 7 10 9 9 9 8 8 8 7
-3 -3 -3 -3 -3 -3 -3 -3 -3 -3 -3 -3 -3 -3 -3 -3 -3 -3 -2 -2 -3 -2 -2 -1 -0 0 -0 1 2 3 4 3 4 3 3 3 2 5 4 6 6 7 9 6 8 10 10 9 8 7 7 6 4 5
-3 -3 -3 -3 -3 -3 -3 -3 -3 -3 -3 -3 -3 -2 -3 -3 -3 -3 -3 -3 -3 -2 -1 0 0 -0 0 0 1 1 2 2 2 3 3 3 2 4 4 5 6 7 5 4 7 9 10 9 8 7 6 4 3 3
-3 -3 -3 -3 -3 -3 -3 -3 -3 -3 -3 -3 -3 -3 -3 -3 -3 -3 -3 -3 -3 -2 -0 -1 -1 0 0 0 0 1 1 2 2 2 2 2 3 3 4 4 4 6 5 4 6 9 9 9 7 4 3 3 3 2
-3 -3 -3 -3 -3 -3 -3 -3 -3 -3 -3 -3 -3 -3 -3 -3 -3 -4 -4 -3 -4 -3 -3 -0 -0 -0 -0 0 0 -0 0 1 1 1 1 1 2 1 1 4 6 6 6 6 7 8 5 6 4 3 1 0 2 2
-3 -3 -3 -3 -3 -3 -3 -3 -3 -3 -4 -4 -4 -4 -4 -4 -4 -3 -2 -2 -1 -3 -3 -1 1 0 0 0 0 -0 0 0 0 1 1 1 2 1 2 4 5 5 4 7 6 5 4 4 2 3 1 0 -0 -0
-3 -3 -4 -3 -3 -4 -3 -4 -4 -4 -4 -3 -3 -3 -3 -3 -4 -4 -2 -3 -3 -3 -3 -1 1 -0 -1 -1 -0 -0 -0 -0 -0 -0 2 2 3 3 2 5 6 6 6 7 5 4 3 1 -0 -0 -1 -1 -2 -3
-4 -4 -4 -4 -4 -4 -4 -4 -3 -3 -3 -2 -2 -2 -2 -2 -2 -3 -2 -3 -3 -3 -2 0 2 1 -2 -1 0 -0 0 -0 1 1 2 2 3 3 5 6 6 7 7 7 5 4 1 0 -1 -2 -2 -2 -3 -3
-4 -4 -4 -4 -4 -3 -3 -3 -2 -2 -2 -2 -2 -2 -3 -2 -2 -3 -3 -3 -3 -3 -2 1 2 2 -1 -1 1 1 0 2 2 3 3 3 4 5 5 6 6 6 7 6 4 3 -1 -1 -2 -2 -2 -3 -2 -3
-4 -3 -3 -3 -3 -2 -2 -2 -2 -2 -2 -2 -2 -2 -2 -2 -2 -2 -2 -1 -1 -0 1 2 3 3 0 1 2 2 2 3 2 4 4 5 5 6 5 5 6 6 6 6 4 3 2 0 -2 -3 -3 -2 -2 -3
-3 -3 -3 -2 -2 -2 -2 -2 -2 -2 -2 -2 -2 -2 -2 -2 -2 -0 0 2 2 3 3 3 3 3 0 -0 3 3 3 3 3 4 3 4 7 7 7 7 7 7 6 6 4 3 1 -1 -2 -3 -2 -2 -3 -4
-3 -3 -2 -3 -2 -2 -2 -2 -2 -1 -1 -2 -1 -1 -0 -1 1 1 1 3 3 3 2 2 1 -0 0 0 1 3 2 3 4 2 4 7 8 4 4 4 4 6 5 4 3 2 -0 -2 -3 -2 -3 -4 -4 -4
-2 -2 -3 -3 -2 -2 -2 -2 -2 -2 -1 -0 -1 0 1 1 3 4 5 6 5 3 3 3 3 4 2 3 1 1 4 3 3 3 5 6 3 2 0 -0 1 1 1 1 -0 -1 -2 -2 -2 -3 -3 -3 -2 -3
-2 -2 -2 -3 -2 -2 -2 -2 -2 -1 -1 -0 1 2 2 2 2 0 1 4 3 3 4 3 3 4 4 2 3 2 2 3 4 5 3 -0 -1 -1 -2 -2 -1 -1 -1 -1 -2 -2 -3 -3 -3 -3 -3 -3 -3 -3
-2 -2 -2 -2 -2 -2 -2 -2 -2 -1 -1 -0 -0 1 1 2 -0 -0 -0 -0 0 2 4 3 3 3 2 4 3 3 3 4 3 1 -1 -1 -2 -3 -3 -3 -2 -2 -2 -3 -3 -3 -3 -3 -2 -2 -3 -3 -3 -3
-2 -1 -1 -1 -2 -2 -2 -2 -2 -1 -1 -1 -1 -2 -2 -0 -1 -1 -1 -0 1 2 2 2 2 3 3 3 3 4 3 1 -1 -1 -2 -3 -4 -3 -4 -3 -3 -3 -3 -4 -4 -4 -4 -4 -3 -3 -3 -4 -4 -4
-2 -1 -1 -1 -2 -2 -2 -2 -1 -0 -0 -2 -0 -2 -2 -2 -2 -2 -2 -1 -0 1 2 2 3 3 2 2 2 1 -0 -1 -2 -4 -4 -5 -5 -4 -4 -4 -4 -4 -4 -4 -5 -5 -4 -4 -3 -4 -3 -4 -5 -6
-1 -1 -1 -1 -1 -1 -2 -2 -1 -0 -2 -2 -2 -2 -3 -3 -3 -2 -2 -2 -1 -0 -1 -1 -0 1 1 -0 -1 -1 -2 -3 -3 -4 -6 -6 -6 -6 -5 -4 -4 -4 -4 -4 -5 -4 -4 -4 -6 -5 -4 -5 -6 -7
-1 -1 -1 -1 -0 -1 -1 -1 -1 -0 -1 -2 -2 -2 -3 -3 -3 -3 -3 -2 -2 -2 -1 -1 -1 -2 -3 -4 -4 -4 -5 -5 -5 -5 -6 -7 -6 -6 -5 -6 -5 -4 -5 -5 -6 -5 -5 -6 -6 -6 -5 -6 -8 -9
-1 -1 -1 -1 -1 -1 -1 -1 -1 -1 -2 -2 -3 -2 -3 -3 -3 -3 -2 -2 -2 -2 -2 -3 -4 -5 -5 -5 -5 -5 -5 -6 -5 -5 -5 -6 -6 -6 -6 -5 -6 -6 -6 -5 -5 -6 -6 -7 -6 -5 -5 -7 -9 -9
-1 -1 -1 -1 -2 -1 -1 -2 -0 -1 -1 -1 -1 -1 -1 -1 -2 -3 -2 -2 -3 -4 -4 -4 -5 -5 -5 -5 -5 -5 -6 -6 -6 -6 -6 -6 -6 -6 -6 -6 -6 -6 -6 -6 -6 -5 -7 -7 -5 -5 -6 -8 -8 -9
-1 0 -0 -1 -1 -1 -2 -2 -1 -0 0 -1 -0 -0 -1 -1 -2 -2 -2 -3 -5 -6 -6 -5 -5 -6 -5 -5 -5 -5 -5 -5 -6 -6 -6 -6 -6 -5 -6 -6 -6 -5 -6 -6 -6 -6 -6 -5 -5 -5 -6 -7 -8 -10
-0 -0 -1 -2 -1 -2 -2 -1 -0 0 0 1 1 -1 -1 -1 -2 -1 -2 -4 -6 -6 -6 -6 -5 -5 -5 -5 -5 -6 -6 -5 -6 -5 -5 -5 -5 -5 -5 -5 -4 -5 -6 -5 -5 -5 -5 -5 -5 -6 -6 -7 -9 -10
-1 -4 -3 -2 -3 -2 -1 -1 -1 0 -1 -1 -1 -1 -1 -2 -1 -2 -2 -5 -6 -6 -7 -6 -5 -5 -5 -5 -6 -6 -6 -6 -5 -6 -6 -6 -5 -5 -5 -5 -5 -5 -5 -5 -5 -5 -5 -5 -5 -6 -6 -7 -10 -11
-2 -4 -3 -2 -2 -1 -1 -1 -1 -1 -1 -1 -2 -1 -2 -1 -2 -2 -3 -6 -7 -8 -8 -8 -7 -6 -6 -7 -6 -7 -6 -6 -6 -6 -6 -6 -6 -6 -6 -6 -7 -7 -6 -6 -6 -6 -6 -7 -7 -7 -8 -8 -10 -11
-3 -3 -4 -4 -4 -3 -2 -3 -2 -1 -1 -1 -1 -2 -2 -1 -2 -5 -9 -9 -9 -10 -10 -10 -9 -8 -8 -8 -8 -7 -7 -6 -6 -6 -6 -6 -7 -7 -7 -7 -7 -7 -7 -6 -6 -7 -7 -7 -7 -7 -8 -9 -9 -9
-4 -5 -4 -4 -4 -4 -3 -3 -2 -3 -3 -4 -3 -2 -1 -2 -4 -9 -10 -12 -12 -11 -11 -10 -9 -10 -9 -8 -7 -7 -7 -7 -7 -6 -6 -7 -7 -7 -7 -7 -7 -7 -7 -7 -7 -7 -7 -8 -8 -8 -9 -10 -11 -9
-5 -6 -5 -6 -5 -5 -5 -4 -4 -6 -8 -6 -4 -6 -8 -12 -14 -13 -14 -13 -11 -11 -10 -10 -10 -9 -9 -9 -8 -8 -7 -7 -8 -7 -7 -7 -7 -8 -8 -7 -7 -7 -7 -7 -7 -8 -8 -8 -9 -9 -10 -10 -11 -10
-6 -7 -5 -6 -5 -4 -7 -8 -8 -11 -11 -11 -12 -13 -13 -14 -16 -15 -14 -13 -12 -12 -12 -12 -11 -11 -11 -10 -10 -10 -9 -9 -8 -9 -10 -9 -9 -9 -9 -8 -8 -8 -8 -8 -8 -8 -8 -9 -9 -9 -10 -10 -10 -11
-7 -6 -6 -5 -5 -7 -9 -11 -11 -11 -11 -11 -11 -10 -12 -14 -16 -16 -15 -14 -13 -13 -13 -12 -11 -11 -12 -11 -12 -11 -11 -10 -10 -10 -9 -9 -9 -10 -9 -9 -9 -8 -8 -8 -8 -8 -8 -9 -9 -9 -10 -10 -10 -10
-7 -6 -6 -5 -6 -9 -9 -8 -8 -8 -10 -10 -11 -13 -13 -12 -12 -15 -14 -14 -14 -14 -12 -13 -13 -12 -11 -11 -11 -11 -11 -11 -11 -10 -10 -10 -10 -10 -10 -10 -9 -9 -9 -9 -9 -9 -9 -9 -10 -10 -10 -10 -10 -10
-8 -7 -7 -6 -7 -7 -8 -7 -7 -8 -8 -9 -10 -10 -11 -10 -11 -15 -15 -14 -15 -15 -13 -12 -12 -12 -12 -12 -12 -12 -12 -12 -11 -11 -11 -11 -11 -11 -10 -10 -10 -10 -10 -10 -10 -10 -10 -10 -10 -10 -10 -10 -11 -11

GFSWCAN_850_temp_168.txt.gz
Temp
-3 -3 -3 -3 -3 -3 -3 -3 -3 -2 -2 -2 -2 -2 -2 -2 -3 -3 -3 -2 -2 -1 1 2 3 3 3 1 1 4 1 2 2 2 3 4 4 5 6 6 6 6 5 3 4 5 4 10 10 9 10 9 10 10
-3 -3 -3 -3 -3 -3 -3 -3 -3 -3 -2 -2 -2 -2 -3 -3 -3 -3 -2 -2 -2 -2 -0 -0 1 1 3 3 3 0 0 1 4 3 4 5 4 4 5 4 7 5 7 7 5 3 6 7 7 7 8 7 8 7
-3 -3 -3 -3 -3 -3 -3 -3 -3 -3 -3 -3 -3 -3 -3 -2 -2 -2 -2 -2 -2 -1 -1 0 1 2 1 1 2 2 2 3 2 2 4 4 3 5 4 5 5 7 8 6 6 8 8 9 8 9 8 8 7 7
-3 -3 -3 -3 -3 -3 -3 -3 -3 -3 -3 -3 -3 -3 -3 -3 -3 -2 -2 -2 -2 -1 -0 1 2 1 2 1 1 1 2 3 3 3 3 3 3 5 4 4 4 5 6 6 6 6 6 6 8 8 7 6 5 4
-3 -3 -3 -3 -3 -3 -3 -3 -3 -3 -3 -3 -3 -3 -2 -3 -3 -3 -3 -2 -2 -2 -1 -1 0 1 2 2 1 2 2 2 3 2 2 2 3 3 4 3 3 4 4 4 4 6 5 4 3 5 3 5 4 3
-3 -3 -3 -3 -3 -3 -3 -3 -3 -3 -3 -3 -3 -3 -3 -3 -3 -3 -4 -3 -2 -2 -2 0 0 1 1 1 2 1 2 2 2 2 2 2 2 2 1 2 5 5 6 6 6 5 5 6 5 5 4 4 3 2
-3 -3 -3 -3 -3 -3 -3 -3 -3 -3 -3 -3 -3 -3 -3 -3 -3 -4 -3 -2 -2 -3 -2 -0 1 1 1 1 1 1 1 1 1 1 1 1 2 1 1 1 4 5 5 6 5 4 5 5 4 3 2 1 1 -0
-3 -3 -3 -3 -3 -3 -3 -3 -3 -3 -3 -4 -4 -4 -4 -4 -4 -4 -3 -2 -3 -3 -2 -1 1 1 1 -0 -1 0 0 -0 -0 0 1 2 2 2 1 4 5 5 5 6 5 3 4 3 3 1 1 -0 -1 -1
-3 -3 -3 -3 -3 -3 -3 -3 -3 -3 -4 -4 -4 -3 -3 -4 -4 -4 -3 -3 -3 -3 -2 -1 1 1 -1 0 -0 -0 0 0 1 1 2 2 2 2 4 5 5 6 6 7 7 4 3 2 1 -0 -0 -1 -2 -3
-3 -3 -3 -3 -3 -3 -3 -3 -4 -3 -3 -3 -3 -3 -3 -2 -2 -3 -3 -3 -4 -3 -3 -0 1 -0 -0 -0 0 1 1 1 1 3 3 2 3 4 4 5 5 6 7 7 7 4 1 1 0 -1 -1 -2 -3 -4
-3 -3 -3 -3 -3 -3 -3 -2 -2 -2 -3 -2 -3 -2 -2 -2 -2 -2 -3 -2 -2 -1 0 1 2 1 0 1 1 2 2 3 2 4 3 4 4 5 4 4 4 5 5 6 6 6 4 3 0 -1 -2 -3 -3 -4
-3 -3 -3 -3 -2 -2 -2 -2 -2 -2 -2 -2 -2 -2 -2 -2 -2 -1 -1 1 1 2 3 2 2 3 0 1 0 3 2 3 2 3 4 4 6 7 7 7 7 7 6 6 6 5 3 2 0 -1 -2 -3 -4 -3
-3 -3 -2 -3 -3 -2 -2 -2 -2 -2 -2 -2 -2 -2 -1 -1 0 1 0 2 3 4 3 3 3 2 0 1 1 2 2 2 3 2 3 6 6 5 4 3 4 5 6 7 7 4 3 2 0 -2 -3 -3 -3 -3
-3 -3 -2 -2 -2 -2 -2 -2 -2 -2 -2 -1 -1 -0 0 1 2 4 5 5 5 4 4 3 2 3 2 1 1 2 3 4 3 3 5 3 1 1 0 0 0 2 2 4 4 3 2 1 -1 -2 -3 -3 -3 -4
-2 -2 -2 -2 -2 -2 -2 -2 -2 -2 -1 -1 -0 1 2 3 1 1 1 4 4 4 4 3 3 3 3 2 3 3 2 3 4 4 1 -0 -1 -1 -2 -1 -1 -1 1 1 1 1 0 -1 -2 -3 -3 -3 -3 -4
-2 -2 -2 -3 -2 -2 -2 -2 -2 -1 -1 -0 1 1 2 2 1 -0 1 1 3 4 4 4 4 3 3 4 3 3 4 4 2 0 -1 -1 -2 -3 -3 -3 -2 -2 -1 -1 -1 -1 -2 -2 -3 -3 -3 -3 -4 -4
-2 -2 -2 -2 -2 -2 -2 -1 -1 -1 -1 -1 -0 -2 -1 -1 -0 -0 1 1 2 3 1 3 3 3 4 4 4 5 2 0 -1 -2 -2 -3 -4 -3 -4 -3 -3 -3 -3 -3 -3 -3 -3 -3 -3 -3 -4 -4 -4 -4
-2 -1 -1 -1 -2 -2 -2 -2 -1 -1 -1 -1 -0 -2 -2 -2 -1 -1 -1 -0 1 2 3 3 3 3 3 3 2 0 -1 -1 -2 -3 -4 -5 -5 -5 -4 -4 -4 -4 -4 -4 -4 -4 -4 -5 -4 -5 -5 -5 -5 -5
-1 -1 -1 -1 -2 -2 -2 -1 -1 -0 -1 -2 -2 -2 -2 -3 -2 -2 -1 -1 -1 0 1 1 1 2 1 -1 -1 -2 -3 -3 -3 -4 -5 -6 -6 -5 -5 -5 -5 -5 -5 -5 -5 -5 -5 -5 -5 -5 -4 -4 -5 -5
-1 -1 -1 -1 -1 -1 -1 -1 -1 -0 -0 -2 -2 -2 -2 -3 -3 -2 -2 -2 -1 -1 -1 -0 -1 -2 -3 -4 -4 -4 -4 -5 -5 -4 -5 -6 -6 -6 -6 -6 -6 -6 -6 -6 -6 -6 -6 -6 -6 -6 -5 -6 -5 -5
-1 -1 -1 -1 -1 -1 -1 -0 0 -0 -1 -1 -2 -2 -2 -2 -2 -2 -2 -2 -2 -1 -1 -2 -4 -4 -5 -5 -5 -5 -6 -6 -5 -5 -4 -5 -6 -6 -5 -5 -6 -6 -6 -6 -6 -6 -6 -6 -7 -6 -6 -7 -7 -6
-1 -1 -1 -1 -1 -1 -0 -1 0 -0 -1 -1 -1 -1 -1 -1 -1 -2 -1 -2 -2 -4 -4 -4 -4 -4 -5 -5 -5 -6 -6 -6 -6 -6 -5 -5 -5 -6 -6 -5 -5 -5 -5 -5 -6 -6 -6 -6 -6 -5 -6 -7 -8 -8
-1 -1 -1 -2 -2 -1 -1 -1 0 0 -0 -1 -1 -0 -1 -1 -2 -1 -2 -3 -4 -5 -5 -5 -5 -5 -5 -5 -5 -5 -5 -5 -5 -5 -5 -5 -5 -5 -5 -5 -5 -5 -5 -5 -6 -6 -6 -5 -5 -5 -7 -8 -9 -9
-1 -1 -1 -2 -1 -1 -2 -0 1 1 1 1 1 -0 0 -1 -1 -1 -1 -3 -5 -5 -5 -5 -4 -4 -4 -5 -5 -6 -5 -5 -5 -5 -5 -5 -5 -5 -5 -5 -5 -5 -5 -6 -6 -6 -6 -6 -6 -7 -8 -8 -9 -9
-2 -3 -3 -2 -2 -1 -1 -0 -0 2 0 0 0 -0 -1 -1 -0 -0 -1 -4 -5 -6 -5 -5 -4 -4 -4 -5 -6 -6 -5 -5 -5 -5 -6 -5 -5 -6 -6 -6 -6 -6 -5 -5 -6 -7 -7 -7 -7 -8 -8 -9 -9 -9
-1 -3 -2 -2 -1 -1 0 -0 -0 0 0 -0 -0 0 -0 0 -1 -1 -1 -5 -6 -6 -6 -6 -6 -5 -6 -6 -6 -7 -7 -6 -5 -6 -6 -6 -6 -6 -6 -6 -6 -6 -6 -7 -7 -7 -7 -8 -8 -9 -9 -9 -10 -10
-2 -2 -3 -3 -3 -2 -1 -1 -1 0 -1 -0 -0 -1 -1 -1 -1 -3 -7 -8 -8 -8 -8 -8 -8 -7 -7 -7 -8 -8 -7 -6 -6 -6 -6 -7 -7 -7 -7 -7 -7 -7 -8 -7 -7 -8 -8 -8 -9 -9 -9 -10 -10 -10
-4 -4 -4 -4 -3 -3 -2 -1 -1 -1 -1 -2 -1 -1 -1 -2 -3 -8 -9 -10 -10 -10 -10 -9 -9 -9 -9 -9 -9 -8 -7 -7 -7 -7 -7 -7 -7 -7 -7 -7 -7 -7 -7 -7 -7 -7 -8 -8 -9 -9 -9 -10 -10 -10
-4 -5 -5 -4 -4 -3 -3 -3 -3 -5 -7 -5 -3 -3 -6 -11 -12 -11 -12 -12 -10 -10 -10 -9 -10 -10 -10 -10 -9 -8 -7 -8 -7 -7 -6 -7 -7 -8 -8 -8 -8 -8 -7 -7 -7 -7 -8 -8 -9 -9 -9 -10 -10 -10
-5 -6 -5 -4 -5 -3 -6 -8 -7 -9 -9 -9 -10 -11 -12 -13 -14 -13 -13 -11 -11 -10 -10 -10 -10 -9 -9 -9 -10 -10 -9 -8 -8 -9 -9 -9 -10 -9 -9 -9 -9 -9 -8 -8 -8 -8 -8 -8 -8 -9 -9 -10 -10 -10
-7 -6 -5 -5 -4 -6 -8 -9 -10 -10 -10 -10 -9 -8 -10 -13 -14 -14 -13 -13 -12 -11 -11 -11 -11 -11 -11 -10 -10 -10 -11 -10 -10 -9 -9 -10 -10 -10 -10 -9 -9 -9 -9 -9 -9 -9 -9 -9 -10 -10 -10 -10 -10 -10
-7 -6 -5 -4 -5 -8 -9 -8 -7 -7 -9 -9 -10 -11 -12 -11 -11 -14 -13 -13 -13 -12 -12 -12 -12 -12 -11 -11 -11 -11 -11 -11 -10 -10 -10 -10 -10 -10 -11 -10 -10 -9 -9 -10 -9 -9 -9 -9 -9 -9 -9 -10 -10 -10
-6 -6 -6 -6 -6 -6 -7 -7 -6 -6 -7 -7 -8 -9 -9 -9 -10 -14 -14 -14 -14 -14 -14 -13 -13 -12 -12 -12 -12 -12 -12 -12 -11 -11 -11 -11 -11 -11 -10 -10 -10 -10 -10 -11 -11 -10 -10 -10 -10 -10 -10 -10 -10 -11